Weather in Lazarevo

Russia / Tula Oblast     53°51′14″N   37°29′17″E
temp.,
°C
wind,
m/s
gust,
m/s
humid.,
%
clouds,
%
prec.,
mm/h
press.,
hPa
HPBL,
m
18 january, tue
tue1800:00−1ssw71493100 0.4 989687
03:00−1ssw5996100 0.6 989456
06:00−5sw1198100 0.1 99112
09:00−5nw1198100 0.2 99411
12:00−3n61097100 1.6 997523
15:00−5n81595100 2.9 1002616
18:00−7n81594100 1.4 1007611
21:00−9n71591100 1.7 1011483
19 january, wed
wed1900:00−11n61494100 0.1 1016388
03:00−14nnw4109776 0.1 1018191
06:00−17nnw410100100 0.0 1020134
09:00−18nw24100100 0.0 102156
12:00−12wnw22935 0.0 1021106
15:00−11w23935 0.0 102070
18:00−16sw35965 0.0 102055
21:00−14sw379313 0.0 101990
20 january, thu
thu2000:00
03:00−13ssw5129179 0.0 1018199
06:00−12ssw51389100 0.0 1016206
09:00
12:00−10s7168269 0.0 1014381
15:00−9s7168247 0.0 1013433
18:00−11s8178377 0.0 1011385
21:00−9s81793100 0.1 1011433
21 january, fri
fri2100:00−8s81694100 0.3 1010541
03:00−7s81692100 0.7 1009521
06:00−7sse81694100 1.0 1007597
09:00−7sse81693100 1.8 1007650
12:00−5sse81592100 0.3 1006740
15:00−3sse71393100 0.4 1004661
18:00−3sse51297100 0.9 1003629
21:00−4sw5119285 2.2 1005463
22 january, sat
sat2200:00−8s5119584 0.0 1008239
03:00−9s5129432 0.0 1009232
06:00−9sse51195100 0.0 1010205
09:00−8s5119465 0.0 1012277
12:00−7s499457 0.0 1014289
15:00−8se369532 0.0 1016164
18:00−15sse349860 0.0 101839
21:00−12sse249769 0.1 102076